| time (UTC) | temp F | wind direction | speed MPH | gust MPH | rain 1hr in | rain 24hr in | rain mn in | humidity % | barometer mb |
| 20260901000103 | 69 | 173 | 0.0 | 1.0 | 0.00 | 0.37 | 0.00 | 76 | 1016.9 |
| 20260831235604 | 69 | 10 | 0.0 | 1.0 | 0.00 | 0.37 | 0.00 | 76 | 1016.9 |
| 20260831234603 | 69 | 124 | 0.0 | 1.0 | 0.00 | 0.37 | 0.00 | 74 | 1017.0 |
| 20260831234104 | 70 | 120 | 0.0 | 1.0 | 0.00 | 0.37 | 0.00 | 74 | 1016.9 |
| 20260831233604 | 70 | 163 | 0.0 | 1.0 | 0.00 | 0.37 | 0.00 | 73 | 1016.9 |
| 20260831233103 | 70 | 222 | 0.0 | 2.0 | 0.00 | 0.37 | 0.00 | 71 | 1017.0 |
| 20260831232604 | 70 | 184 | 0.0 | 1.0 | 0.00 | 0.37 | 0.00 | 72 | 1017.0 |
| 20260831232103 | 71 | 247 | 0.0 | 1.0 | 0.00 | 0.37 | 0.00 | 70 | 1017.1 |
| 20260831231603 | 71 | 117 | 1.0 | 1.0 | 0.00 | 0.37 | 0.00 | 71 | 1017.1 |
| 20260831231104 | 71 | 172 | 0.0 | 1.0 | 0.00 | 0.37 | 0.00 | 69 | 1017.1 |
| 20260831230603 | 71 | 173 | 0.0 | 1.0 | 0.00 | 0.37 | 0.00 | 69 | 1017.0 |
| 20260831230104 | 71 | 169 | 1.0 | 2.0 | 0.00 | 0.37 | 0.00 | 69 | 1017.2 |
| 20260831225604 | 72 | 80 | 1.0 | 3.0 | 0.00 | 0.37 | 0.00 | 68 | 1017.2 |
| 20260831224603 | 72 | 135 | 0.0 | 1.0 | 0.00 | 0.37 | 0.00 | 67 | 1017.1 |
| 20260831224104 | 72 | 107 | 0.0 | 0.0 | 0.00 | 0.37 | 0.00 | 64 | 1017.1 |
| 20260831223603 | 72 | 123 | 0.0 | 1.0 | 0.00 | 0.37 | 0.00 | 64 | 1017.1 |
| 20260831223105 | 72 | 119 | 0.0 | 0.0 | 0.00 | 0.37 | 0.00 | 62 | 1017.0 |
| 20260831222604 | 73 | 157 | 0.0 | 0.0 | 0.00 | 0.37 | 0.00 | 62 | 1017.0 |
| 20260831221604 | 73 | 92 | 0.0 | 1.0 | 0.00 | 0.37 | 0.00 | 61 | 1017.2 |
| 20260831220603 | 73 | 206 | 0.0 | 1.0 | 0.00 | 0.37 | 0.00 | 60 | 1017.2 |
| 20260831215603 | 73 | 170 | 0.0 | 1.0 | 0.00 | 0.37 | 0.00 | 58 | 1017.2 |
| 20260831214603 | 74 | 198 | 0.0 | 0.0 | 0.00 | 0.37 | 0.00 | 59 | 1017.2 |
| 20260831214104 | 74 | 172 | 0.0 | 0.0 | 0.00 | 0.37 | 0.00 | 58 | 1017.2 |
| 20260831213603 | 74 | 156 | 0.0 | 2.0 | 0.00 | 0.37 | 0.00 | 55 | 1017.3 |
| 20260831212603 | 74 | 238 | 0.0 | 0.0 | 0.00 | 0.37 | 0.00 | 55 | 1017.2 |
| 20260831212103 | 75 | 272 | 0.0 | 0.0 | 0.00 | 0.37 | 0.00 | 53 | 1017.2 |
| 20260831211603 | 75 | 262 | 0.0 | 2.0 | 0.00 | 0.37 | 0.00 | 58 | 1017.0 |
| 20260831211103 | 75 | 59 | 0.0 | 1.0 | 0.00 | 0.37 | 0.00 | 54 | 1017.2 |
| 20260831210604 | 75 | 126 | 0.0 | 1.0 | 0.00 | 0.37 | 0.00 | 52 | 1017.3 |
| 20260831210104 | 75 | 250 | 0.0 | 2.0 | 0.00 | 0.37 | 0.00 | 52 | 1017.2 |
| 20260831205603 | 74 | 245 | 0.0 | 0.0 | 0.00 | 0.37 | 0.00 | 52 | 1017.2 |
| 20260831205103 | 75 | 330 | 0.0 | 1.0 | 0.00 | 0.37 | 0.00 | 57 | 1017.3 |
| 20260831204603 | 75 | 216 | 0.0 | 2.0 | 0.00 | 0.37 | 0.00 | 57 | 1017.5 |
| 20260831204103 | 76 | 159 | 0.0 | 1.0 | 0.00 | 0.37 | 0.00 | 54 | 1017.5 |
| 20260831203603 | 77 | 283 | 0.0 | 2.0 | 0.00 | 0.37 | 0.00 | 49 | 1017.4 |
| 20260831202603 | 77 | 239 | 1.0 | 2.0 | 0.00 | 0.37 | 0.00 | 47 | 1017.4 |
| 20260831202103 | 77 | 285 | 0.0 | 2.0 | 0.00 | 0.37 | 0.00 | 47 | 1017.4 |
| 20260831201603 | 77 | 5 | 1.0 | 3.0 | 0.00 | 0.37 | 0.00 | 46 | 1017.2 |
| 20260831201103 | 76 | 28 | 1.0 | 2.0 | 0.00 | 0.37 | 0.00 | 48 | 1017.4 |
| 20260831195603 | 74 | 244 | 0.0 | 2.0 | 0.00 | 0.37 | 0.00 | 60 | 1017.5 |
| 20260831195102 | 73 | 130 | 1.0 | 2.0 | 0.00 | 0.37 | 0.00 | 54 | 1017.5 |
| 20260831194103 | 74 | 229 | 1.0 | 2.0 | 0.00 | 0.37 | 0.00 | 59 | 1017.5 |
| 20260831193103 | 74 | 185 | 0.0 | 1.0 | 0.00 | 0.37 | 0.00 | 55 | 1017.7 |
| 20260831192603 | 75 | 337 | 1.0 | 3.0 | 0.00 | 0.37 | 0.00 | 52 | 1018.0 |
| 20260831192102 | 74 | 109 | 1.0 | 2.0 | 0.00 | 0.37 | 0.00 | 52 | 1018.0 |
| 20260831191103 | 74 | 218 | 0.0 | 3.0 | 0.00 | 0.37 | 0.00 | 59 | 1017.9 |
| 20260831190603 | 74 | 266 | 1.0 | 2.0 | 0.00 | 0.37 | 0.00 | 59 | 1018.0 |
| 20260831185603 | 74 | 208 | 1.0 | 1.0 | 0.00 | 0.37 | 0.00 | 54 | 1018.0 |
| 20260831185102 | 74 | 135 | 1.0 | 2.0 | 0.00 | 0.37 | 0.00 | 54 | 1018.0 |
| 20260831184603 | 75 | 342 | 0.0 | 2.0 | 0.00 | 0.37 | 0.00 | 56 | 1018.0 |
| 20260831184103 | 75 | 209 | 1.0 | 2.0 | 0.00 | 0.37 | 0.00 | 54 | 1018.1 |
| 20260831183603 | 75 | 107 | 1.0 | 2.0 | 0.00 | 0.37 | 0.00 | 54 | 1018.1 |
| 20260831182602 | 74 | 239 | 1.0 | 3.0 | 0.00 | 0.37 | 0.00 | 54 | 1018.4 |
| 20260831182103 | 75 | 49 | 1.0 | 2.0 | 0.00 | 0.37 | 0.00 | 56 | 1018.5 |
| 20260831181103 | 74 | 14 | 1.0 | 2.0 | 0.00 | 0.37 | 0.00 | 52 | 1018.5 |
| 20260831180603 | 75 | 101 | 1.0 | 3.0 | 0.00 | 0.37 | 0.00 | 54 | 1018.5 |
| 20260831175603 | 74 | 208 | 1.0 | 3.0 | 0.00 | 0.37 | 0.00 | 56 | 1018.5 |
| 20260831175103 | 74 | 125 | 1.0 | 5.0 | 0.00 | 0.37 | 0.00 | 54 | 1018.5 |
| 20260831174603 | 74 | 229 | 1.0 | 3.0 | 0.00 | 0.37 | 0.00 | 57 | 1018.5 |
| 20260831174103 | 74 | 55 | 1.0 | 3.0 | 0.00 | 0.37 | 0.00 | 51 | 1018.5 |
| 20260831173603 | 74 | 219 | 1.0 | 2.0 | 0.00 | 0.37 | 0.00 | 53 | 1018.6 |
| 20260831173102 | 74 | 345 | 1.0 | 2.0 | 0.00 | 0.37 | 0.00 | 53 | 1018.6 |
| 20260831172603 | 73 | 248 | 1.0 | 2.0 | 0.00 | 0.37 | 0.00 | 60 | 1018.7 |
| 20260831172102 | 74 | 213 | 1.0 | 2.0 | 0.00 | 0.37 | 0.00 | 57 | 1018.6 |
| 20260831171102 | 74 | 295 | 1.0 | 2.0 | 0.00 | 0.37 | 0.00 | 54 | 1018.6 |
| 20260831170603 | 74 | 153 | 1.0 | 3.0 | 0.00 | 0.37 | 0.00 | 56 | 1018.6 |
| 20260831165602 | 74 | 264 | 1.0 | 2.0 | 0.00 | 0.37 | 0.00 | 64 | 1019.0 |
| 20260831165102 | 74 | 137 | 1.0 | 3.0 | 0.00 | 0.37 | 0.00 | 57 | 1019.0 |
| 20260831164603 | 75 | 65 | 0.0 | 1.0 | 0.00 | 0.37 | 0.00 | 60 | 1019.0 |
| 20260831163602 | 73 | 209 | 1.0 | 2.0 | 0.00 | 0.37 | 0.00 | 64 | 1019.0 |
| 20260831163102 | 73 | 95 | 0.0 | 1.0 | 0.00 | 0.37 | 0.00 | 61 | 1019.1 |
| 20260831162602 | 73 | 197 | 1.0 | 2.0 | 0.00 | 0.37 | 0.00 | 59 | 1019.0 |
| 20260831162102 | 73 | 207 | 1.0 | 2.0 | 0.00 | 0.37 | 0.00 | 57 | 1019.0 |
| 20260831161603 | 74 | 201 | 1.0 | 2.0 | 0.00 | 0.37 | 0.00 | 57 | 1019.2 |
| 20260831161102 | 73 | 132 | 1.0 | 2.0 | 0.00 | 0.37 | 0.00 | 58 | 1019.4 |
| 20260831160603 | 73 | 245 | 1.0 | 1.0 | 0.00 | 0.37 | 0.00 | 60 | 1019.2 |
| 20260831155103 | 74 | 180 | 0.0 | 2.0 | 0.00 | 0.37 | 0.00 | 57 | 1019.4 |
| 20260831154602 | 74 | 16 | 1.0 | 2.0 | 0.00 | 0.37 | 0.00 | 53 | 1019.5 |
| 20260831154103 | 74 | 84 | 1.0 | 2.0 | 0.00 | 0.37 | 0.00 | 52 | 1019.4 |
| 20260831153602 | 74 | 256 | 1.0 | 3.0 | 0.00 | 0.37 | 0.00 | 54 | 1019.4 |
| 20260831153103 | 73 | 189 | 1.0 | 2.0 | 0.00 | 0.37 | 0.00 | 59 | 1019.5 |
| 20260831152602 | 74 | 133 | 1.0 | 3.0 | 0.00 | 0.37 | 0.00 | 53 | 1019.5 |
| 20260831152102 | 72 | 72 | 3.0 | 5.0 | 0.00 | 0.37 | 0.00 | 58 | 1019.5 |
| 20260831151602 | 72 | 118 | 2.0 | 6.0 | 0.00 | 0.37 | 0.00 | 53 | 1019.5 |
| 20260831151102 | 73 | 257 | 2.0 | 6.0 | 0.00 | 0.37 | 0.00 | 52 | 1019.6 |
| 20260831150602 | 72 | 38 | 1.0 | 5.0 | 0.00 | 0.37 | 0.00 | 54 | 1019.5 |
| 20260831145602 | 73 | 189 | 1.0 | 2.0 | 0.00 | 0.37 | 0.00 | 52 | 1019.5 |
| 20260831145102 | 73 | 359 | 1.0 | 3.0 | 0.00 | 0.37 | 0.00 | 56 | 1019.6 |
| 20260831144602 | 73 | 242 | 2.0 | 5.0 | 0.00 | 0.37 | 0.00 | 63 | 1019.6 |
| 20260831143103 | 72 | 350 | 1.0 | 3.0 | 0.00 | 0.37 | 0.00 | 61 | 1019.6 |
| 20260831142602 | 72 | 222 | 1.0 | 2.0 | 0.00 | 0.37 | 0.00 | 65 | 1019.6 |
| 20260831142102 | 71 | 199 | 1.0 | 3.0 | 0.00 | 0.37 | 0.00 | 62 | 1019.5 |
| 20260831141602 | 70 | 0 | 2.0 | 6.0 | 0.00 | 0.37 | 0.00 | 65 | 1019.5 |
| 20260831141102 | 71 | 189 | 1.0 | 2.0 | 0.00 | 0.37 | 0.00 | 63 | 1019.4 |
| 20260831135602 | 70 | 93 | 1.0 | 3.0 | 0.00 | 0.37 | 0.00 | 70 | 1019.5 |
| 20260831134602 | 69 | 286 | 1.0 | 3.0 | 0.00 | 0.37 | 0.00 | 71 | 1019.5 |
| 20260831134102 | 70 | 87 | 1.0 | 5.0 | 0.00 | 0.37 | 0.00 | 71 | 1019.4 |
| 20260831133602 | 69 | 273 | 2.0 | 3.0 | 0.00 | 0.37 | 0.00 | 72 | 1019.5 |
| 20260831133102 | 69 | 358 | 2.0 | 3.0 | 0.00 | 0.37 | 0.00 | 74 | 1019.4 |
| 20260831132602 | 68 | 78 | 1.0 | 3.0 | 0.00 | 0.37 | 0.00 | 73 | 1019.2 |
| 20260831131602 | 68 | 259 | 0.0 | 1.0 | 0.00 | 0.37 | 0.00 | 75 | 1019.3 |
| 20260831131102 | 68 | 232 | 2.0 | 5.0 | 0.00 | 0.37 | 0.00 | 78 | 1019.2 |
| 20260831130602 | 67 | 52 | 1.0 | 5.0 | 0.00 | 0.37 | 0.00 | 78 | 1019.4 |
| 20260831130101 | 66 | 271 | 2.0 | 5.0 | 0.00 | 0.37 | 0.00 | 80 | 1019.2 |
| 20260831125602 | 66 | 8 | 2.0 | 5.0 | 0.00 | 0.37 | 0.00 | 80 | 1019.4 |
| 20260831124601 | 66 | 53 | 2.0 | 5.0 | 0.00 | 0.37 | 0.00 | 81 | 1019.4 |
| 20260831124102 | 65 | 16 | 2.0 | 5.0 | 0.00 | 0.37 | 0.00 | 83 | 1019.3 |
| 20260831123602 | 65 | 48 | 2.0 | 7.0 | 0.00 | 0.37 | 0.00 | 85 | 1019.3 |
| 20260831123102 | 64 | 40 | 1.0 | 2.0 | 0.00 | 0.37 | 0.00 | 89 | 1019.2 |
| 20260831122602 | 64 | 10 | 1.0 | 2.0 | 0.00 | 0.37 | 0.00 | 89 | 1019.1 |
| 20260831122102 | 63 | 359 | 1.0 | 3.0 | 0.00 | 0.37 | 0.00 | 88 | 1019.1 |
| 20260831121601 | 63 | 355 | 2.0 | 5.0 | 0.00 | 0.37 | 0.00 | 89 | 1019.0 |
| 20260831121101 | 63 | 22 | 1.0 | 5.0 | 0.00 | 0.37 | 0.00 | 89 | 1019.0 |
| 20260831120602 | 63 | 52 | 1.0 | 5.0 | 0.00 | 0.37 | 0.00 | 89 | 1019.0 |
| 20260831115601 | 63 | 51 | 1.0 | 3.0 | 0.00 | 0.37 | 0.00 | 91 | 1018.9 |
| 20260831115102 | 62 | 197 | 2.0 | 6.0 | 0.00 | 0.37 | 0.00 | 91 | 1018.9 |
| 20260831114602 | 62 | 5 | 1.0 | 3.0 | 0.00 | 0.37 | 0.00 | 93 | 1018.9 |
| 20260831114102 | 62 | 25 | 0.0 | 2.0 | 0.00 | 0.37 | 0.00 | 93 | 1018.9 |
| 20260831113601 | 62 | 99 | 0.0 | 3.0 | 0.00 | 0.37 | 0.00 | 94 | 1018.7 |
| 20260831113102 | 62 | 73 | 1.0 | 2.0 | 0.00 | 0.37 | 0.00 | 95 | 1018.8 |
| 20260831112601 | 62 | 8 | 0.0 | 2.0 | 0.00 | 0.37 | 0.00 | 96 | 1018.8 |
| 20260831112102 | 61 | 328 | 0.0 | 1.0 | 0.00 | 0.37 | 0.00 | 98 | 1018.7 |
| 20260831111601 | 61 | 3 | 0.0 | 2.0 | 0.00 | 0.37 | 0.00 | 99 | 1018.5 |
| 20260831110602 | 61 | 34 | 1.0 | 2.0 | 0.00 | 0.37 | 0.00 | 99 | 1018.5 |
| 20260831105601 | 61 | 224 | 0.0 | 1.0 | 0.00 | 0.37 | 0.00 | 100 | 1018.5 |
| 20260831105102 | 60 | 27 | 0.0 | 1.0 | 0.00 | 0.37 | 0.00 | 99 | 1018.4 |
| 20260831104601 | 60 | 67 | 0.0 | 1.0 | 0.00 | 0.37 | 0.00 | 99 | 1018.4 |
| 20260831104101 | 60 | 45 | 0.0 | 1.0 | 0.00 | 0.37 | 0.00 | 99 | 1018.2 |
| 20260831103101 | 60 | 268 | 1.0 | 3.0 | 0.00 | 0.37 | 0.00 | 99 | 1018.1 |
| 20260831102602 | 60 | 321 | 1.0 | 3.0 | 0.00 | 0.37 | 0.00 | 100 | 1018.0 |
| 20260831101602 | 60 | 274 | 2.0 | 5.0 | 0.00 | 0.37 | 0.00 | 100 | 1018.0 |
| 20260831101102 | 60 | 260 | 2.0 | 5.0 | 0.00 | 0.37 | 0.00 | 100 | 1018.0 |
| 20260831100601 | 61 | 263 | 1.0 | 2.0 | 0.00 | 0.37 | 0.00 | 100 | 1017.8 |
| 20260831095601 | 61 | 238 | 1.0 | 2.0 | 0.00 | 0.37 | 0.00 | 100 | 1017.8 |
| 20260831095101 | 61 | 263 | 1.0 | 2.0 | 0.00 | 0.37 | 0.00 | 100 | 1017.7 |
| 20260831094601 | 61 | 302 | 1.0 | 2.0 | 0.00 | 0.37 | 0.00 | 100 | 1017.7 |
| 20260831094101 | 61 | 246 | 1.0 | 2.0 | 0.00 | 0.37 | 0.00 | 100 | 1017.6 |
| 20260831093602 | 61 | 268 | 1.0 | 2.0 | 0.00 | 0.37 | 0.00 | 100 | 1017.5 |
| 20260831093101 | 61 | 262 | 1.0 | 2.0 | 0.00 | 0.37 | 0.00 | 100 | 1017.5 |
| 20260831092601 | 61 | 240 | 1.0 | 2.0 | 0.00 | 0.37 | 0.00 | 100 | 1017.5 |
| 20260831092101 | 61 | 263 | 1.0 | 2.0 | 0.00 | 0.37 | 0.00 | 100 | 1017.4 |
| 20260831091601 | 61 | 269 | 0.0 | 2.0 | 0.00 | 0.37 | 0.00 | 100 | 1017.4 |
| 20260831091101 | 61 | 242 | 1.0 | 5.0 | 0.00 | 0.37 | 0.00 | 100 | 1017.3 |
| 20260831090601 | 61 | 261 | 1.0 | 2.0 | 0.00 | 0.37 | 0.00 | 100 | 1017.2 |
| 20260831085601 | 62 | 254 | 1.0 | 3.0 | 0.00 | 0.37 | 0.00 | 100 | 1017.2 |
| 20260831085102 | 62 | 254 | 1.0 | 2.0 | 0.00 | 0.37 | 0.00 | 100 | 1017.1 |
| 20260831084601 | 62 | 265 | 1.0 | 2.0 | 0.00 | 0.37 | 0.00 | 100 | 1017.2 |
| 20260831084101 | 62 | 301 | 1.0 | 2.0 | 0.00 | 0.37 | 0.00 | 100 | 1017.1 |
| 20260831083601 | 62 | 265 | 1.0 | 2.0 | 0.00 | 0.37 | 0.00 | 100 | 1017.2 |
| 20260831083102 | 62 | 268 | 0.0 | 2.0 | 0.00 | 0.37 | 0.00 | 100 | 1017.1 |
| 20260831082601 | 62 | 272 | 1.0 | 2.0 | 0.00 | 0.37 | 0.00 | 100 | 1017.1 |
| 20260831082101 | 62 | 248 | 1.0 | 3.0 | 0.00 | 0.37 | 0.00 | 100 | 1017.1 |
| 20260831081601 | 62 | 301 | 1.0 | 5.0 | 0.00 | 0.37 | 0.00 | 100 | 1017.1 |
| 20260831081101 | 62 | 232 | 1.0 | 2.0 | 0.00 | 0.37 | 0.00 | 100 | 1017.1 |
| 20260831080602 | 62 | 273 | 0.0 | 1.0 | 0.00 | 0.37 | 0.00 | 100 | 1017.0 |
| 20260831080101 | 62 | 252 | 1.0 | 1.0 | 0.00 | 0.37 | 0.00 | 100 | 1017.0 |
| 20260831075601 | 62 | 220 | 1.0 | 3.0 | 0.00 | 0.37 | 0.00 | 100 | 1016.9 |
| 20260831074601 | 62 | 287 | 1.0 | 3.0 | 0.00 | 0.37 | 0.00 | 100 | 1016.8 |
| 20260831073601 | 62 | 239 | 1.0 | 3.0 | 0.00 | 0.37 | 0.00 | 100 | 1016.7 |
| 20260831072601 | 62 | 271 | 1.0 | 3.0 | 0.00 | 0.37 | 0.00 | 100 | 1016.6 |
| 20260831072101 | 62 | 252 | 1.0 | 3.0 | 0.00 | 0.37 | 0.00 | 100 | 1016.5 |
| 20260831071601 | 62 | 304 | 2.0 | 2.0 | 0.00 | 0.37 | 0.00 | 100 | 1016.5 |
| 20260831071101 | 63 | 299 | 1.0 | 3.0 | 0.00 | 0.37 | 0.00 | 100 | 1016.5 |
| 20260831070601 | 63 | 271 | 1.0 | 2.0 | 0.00 | 0.37 | 0.00 | 100 | 1016.5 |
| 20260831070101 | 63 | 250 | 1.0 | 2.0 | 0.00 | 0.37 | 0.00 | 100 | 1016.5 |
| 20260831065601 | 63 | 259 | 1.0 | 3.0 | 0.00 | 0.37 | 0.00 | 100 | 1016.5 |
| 20260831065101 | 63 | 273 | 1.0 | 2.0 | 0.00 | 0.37 | 0.00 | 100 | 1016.5 |
| 20260831064601 | 63 | 301 | 1.0 | 3.0 | 0.00 | 0.37 | 0.00 | 100 | 1016.5 |
| 20260831064101 | 63 | 265 | 1.0 | 3.0 | 0.00 | 0.37 | 0.00 | 100 | 1016.5 |
| 20260831063601 | 63 | 232 | 1.0 | 3.0 | 0.00 | 0.37 | 0.00 | 100 | 1016.5 |
| 20260831063101 | 63 | 242 | 1.0 | 3.0 | 0.00 | 0.37 | 0.00 | 100 | 1016.5 |
| 20260831062601 | 63 | 279 | 1.0 | 2.0 | 0.00 | 0.37 | 0.00 | 100 | 1016.6 |
| 20260831062101 | 63 | 259 | 1.0 | 1.0 | 0.00 | 0.37 | 0.00 | 100 | 1016.6 |
| 20260831061601 | 63 | 262 | 1.0 | 1.0 | 0.00 | 0.37 | 0.00 | 100 | 1016.5 |
| 20260831060601 | 63 | 247 | 1.0 | 2.0 | 0.00 | 0.37 | 0.00 | 100 | 1016.5 |
| 20260831060100 | 64 | 231 | 1.0 | 2.0 | 0.00 | 0.37 | 0.00 | 100 | 1016.4 |
| 20260831055601 | 64 | 252 | 0.0 | 2.0 | 0.00 | 0.37 | 0.00 | 100 | 1016.4 |
| 20260831055101 | 64 | 254 | 1.0 | 2.0 | 0.00 | 0.37 | 0.00 | 100 | 1016.4 |
| 20260831053100 | 64 | 255 | 1.0 | 1.0 | 0.00 | 0.37 | 0.00 | 100 | 1016.1 |
| 20260831052601 | 64 | 255 | 0.0 | 1.0 | 0.00 | 0.37 | 0.00 | 100 | 1016.0 |
| 20260831051601 | 64 | 277 | 1.0 | 2.0 | 0.00 | 0.37 | 0.00 | 100 | 1016.0 |
| 20260831051101 | 64 | 247 | 1.0 | 2.0 | 0.00 | 0.37 | 0.00 | 100 | 1016.0 |
| 20260831050601 | 65 | 279 | 0.0 | 1.0 | 0.00 | 0.37 | 0.00 | 100 | 1016.0 |
| 20260831050100 | 65 | 260 | 1.0 | 1.0 | 0.00 | 0.37 | 0.00 | 100 | 1016.0 |
| 20260831045601 | 65 | 223 | 1.0 | 1.0 | 0.00 | 0.37 | 0.00 | 100 | 1016.0 |
| 20260831045100 | 65 | 258 | 0.0 | 1.0 | 0.02 | 0.37 | 0.00 | 100 | 1016.0 |
| 20260831044601 | 65 | 280 | 1.0 | 2.0 | 0.02 | 0.37 | 0.00 | 100 | 1016.0 |
| 20260831044100 | 65 | 276 | 0.0 | 1.0 | 0.02 | 0.37 | 0.00 | 100 | 1016.0 |
| 20260831043101 | 65 | 242 | 0.0 | 1.0 | 0.02 | 0.37 | 0.00 | 100 | 1015.9 |
| 20260831042600 | 66 | 266 | 0.0 | 0.0 | 0.02 | 0.37 | 0.00 | 100 | 1015.9 |
| 20260831042101 | 66 | 259 | 0.0 | 1.0 | 0.02 | 0.37 | 0.00 | 100 | 1016.0 |
| 20260831041100 | 66 | 256 | 0.0 | 1.0 | 0.02 | 0.37 | 0.00 | 100 | 1016.0 |
| 20260831040601 | 66 | 261 | 0.0 | 1.0 | 0.02 | 0.37 | 0.00 | 100 | 1016.0 |
| 20260831040100 | 66 | 268 | 1.0 | 1.0 | 0.06 | 0.37 | 0.00 | 100 | 1015.9 |
| 20260831035601 | 66 | 253 | 0.0 | 2.0 | 0.14 | 0.37 | 0.37 | 100 | 1015.7 |
| 20260831035101 | 66 | 247 | 1.0 | 1.0 | 0.22 | 0.35 | 0.35 | 100 | 1015.6 |
| 20260831034600 | 67 | 238 | 0.0 | 1.0 | 0.30 | 0.35 | 0.35 | 100 | 1015.7 |
| 20260831034100 | 67 | 239 | 0.0 | 0.0 | 0.33 | 0.35 | 0.35 | 100 | 1015.9 |
| 20260831033601 | 67 | 172 | 0.0 | 1.0 | 0.35 | 0.35 | 0.35 | 100 | 1015.6 |
| 20260831033100 | 67 | 226 | 1.0 | 1.0 | 0.35 | 0.35 | 0.35 | 100 | 1015.7 |
| 20260831032601 | 67 | 205 | 0.0 | 1.0 | 0.35 | 0.35 | 0.35 | 100 | 1015.8 |
| 20260831031600 | 67 | 240 | 1.0 | 3.0 | 0.35 | 0.35 | 0.35 | 100 | 1016.0 |
| 20260831025600 | 68 | 270 | 1.0 | 2.0 | 0.24 | 0.24 | 0.24 | 100 | 1016.1 |
| 20260831025100 | 68 | 289 | 1.0 | 3.0 | 0.14 | 0.14 | 0.14 | 96 | 1016.0 |
| 20260831024100 | 70 | 290 | 0.0 | 3.0 | 0.02 | 0.02 | 0.02 | 88 | 1016.0 |
| 20260831023601 | 70 | 62 | 0.0 | 2.0 | 0.00 | 0.00 | 0.00 | 84 | 1015.9 |
| 20260831023100 | 70 | 148 | 1.0 | 2.0 | 0.00 | 0.00 | 0.00 | 83 | 1015.8 |
| 20260831022600 | 71 | 243 | 1.0 | 2.0 | 0.00 | 0.00 | 0.00 | 83 | 1015.7 |
| 20260831022100 | 71 | 238 | 1.0 | 3.0 | 0.00 | 0.00 | 0.00 | 83 | 1015.7 |
| 20260831021601 | 71 | 243 | 1.0 | 2.0 | 0.00 | 0.00 | 0.00 | 83 | 1015.7 |
| 20260831021100 | 71 | 317 | 1.0 | 3.0 | 0.00 | 0.00 | 0.00 | 81 | 1015.7 |
| 20260831020600 | 71 | 288 | 1.0 | 2.0 | 0.00 | 0.00 | 0.00 | 80 | 1015.7 |
| 20260831015600 | 71 | 197 | 1.0 | 3.0 | 0.00 | 0.00 | 0.00 | 78 | 1015.6 |
| 20260831015100 | 71 | 208 | 1.0 | 2.0 | 0.00 | 0.00 | 0.00 | 78 | 1015.6 |
| 20260831014600 | 71 | 299 | 0.0 | 3.0 | 0.00 | 0.00 | 0.00 | 77 | 1015.6 |
| 20260831014100 | 71 | 174 | 1.0 | 2.0 | 0.00 | 0.00 | 0.00 | 77 | 1015.6 |
| 20260831013600 | 71 | 239 | 1.0 | 3.0 | 0.00 | 0.00 | 0.00 | 76 | 1015.5 |
| 20260831013100 | 71 | 69 | 1.0 | 2.0 | 0.00 | 0.00 | 0.00 | 76 | 1015.5 |
| 20260831012600 | 71 | 303 | 1.0 | 2.0 | 0.00 | 0.00 | 0.00 | 75 | 1015.5 |
| 20260831011601 | 71 | 173 | 0.0 | 7.0 | 0.00 | 0.00 | 0.00 | 75 | 1015.3 |
| 20260831011100 | 71 | 189 | 0.0 | 2.0 | 0.00 | 0.00 | 0.00 | 74 | 1015.3 |
| 20260831010600 | 71 | 167 | 1.0 | 3.0 | 0.00 | 0.00 | 0.00 | 75 | 1015.3 |
| 20260831010100 | 72 | 119 | 0.0 | 2.0 | 0.00 | 0.00 | 0.00 | 74 | 1015.3 |
| 20260831005600 | 71 | 134 | 0.0 | 2.0 | 0.00 | 0.00 | 0.00 | 74 | 1015.2 |
| 20260831005100 | 71 | 7 | 1.0 | 2.0 | 0.00 | 0.00 | 0.00 | 73 | 1015.2 |
| 20260831004600 | 71 | 324 | 1.0 | 2.0 | 0.00 | 0.00 | 0.00 | 73 | 1015.1 |
| 20260831004100 | 72 | 243 | 1.0 | 3.0 | 0.00 | 0.00 | 0.00 | 73 | 1015.1 |
| 20260831003600 | 72 | 273 | 1.0 | 3.0 | 0.00 | 0.00 | 0.00 | 73 | 1014.9 |
| 20260831002600 | 72 | 310 | 0.0 | 2.0 | 0.00 | 0.00 | 0.00 | 72 | 1015.1 |
| 20260831001559 | 72 | 229 | 1.0 | 2.0 | 0.00 | 0.00 | 0.00 | 71 | 1015.1 |
| 20260831001100 | 72 | 288 | 1.0 | 2.0 | 0.00 | 0.00 | 0.00 | 70 | 1015.1 |